This is the latest recevied weather packets stored in our database for station/object F5OWB. If no packets are shown the sender has not sent any weather packets the latest 10 day(s).
| Time | Temp. | Humidity | Pressure | Rain* | Wind** | Luminosity | Snow |
|---|---|---|---|---|---|---|---|
| 1778244235 | 19.44° C | 51% | 1018.1 hPa | 0 mm | - | 768 W/m² | - |
| 1778244176 | 19.44° C | 55% | 1018 hPa | 0 mm | - | 766 W/m² | - |
| 1778244116 | 19.44° C | 55% | 1018 hPa | 0 mm | - | 768 W/m² | - |
| 1778244057 | 19.44° C | 51% | 1018 hPa | 0 mm | - | 770 W/m² | - |
| 1778244012 | 19.44° C | 53% | 1018.1 hPa | 0 mm | - | 772 W/m² | - |
| 1778243999 | 19.44° C | 50% | 1018.1 hPa | 0 mm | - | 770 W/m² | - |
| 1778243980 | 19.44° C | 51% | 1018.1 hPa | 0 mm | - | 772 W/m² | - |
| 1778243961 | 19.44° C | 51% | 1018.1 hPa | 0 mm | - | 772 W/m² | - |
| 1778243755 | 19.44° C | 50% | 1018.1 hPa | 0 mm | - | 772 W/m² | - |
| 1778243692 | 18.89° C | 53% | 1018.1 hPa | 0 mm | - | 773 W/m² | - |
| 1778243630 | 18.89° C | 53% | 1018.1 hPa | 0 mm | - | 775 W/m² | - |
| 1778243573 | 18.89° C | 51% | 1018.1 hPa | 0 mm | - | 775 W/m² | - |
| 1778243512 | 18.89° C | 52% | 1018.2 hPa | 0 mm | - | 775 W/m² | - |
| 1778243449 | 18.89° C | 55% | 1018.1 hPa | 0 mm | - | 775 W/m² | - |
| 1778243389 | 18.89° C | 52% | 1018.2 hPa | 0 mm | - | 775 W/m² | - |
| 1778243329 | 18.89° C | 54% | 1018.2 hPa | 0 mm | - | 779 W/m² | - |
| 1778243267 | 18.89° C | 53% | 1018.2 hPa | 0 mm | - | 779 W/m² | - |
| 1778243207 | 18.89° C | 52% | 1018.2 hPa | 0 mm | - | 779 W/m² | - |
| 1778243149 | 18.89° C | 52% | 1018.2 hPa | 0 mm | - | 779 W/m² | - |
| 1778243084 | 18.89° C | 57% | 1018.2 hPa | 0 mm | - | 780 W/m² | - |
| 1778243024 | 18.89° C | 55% | 1018.2 hPa | 0 mm | - | 779 W/m² | - |
| 1778242962 | 18.89° C | 56% | 1018.2 hPa | 0 mm | - | 780 W/m² | - |
| 1778242903 | 18.89° C | 54% | 1018.2 hPa | 0 mm | - | 780 W/m² | - |
| 1778242844 | 18.89° C | 56% | 1018.2 hPa | 0 mm | - | 780 W/m² | - |
| 1778242777 | 18.89° C | 53% | 1018.2 hPa | 0 mm | - | 782 W/m² | - |
* Rain latest hour (hover to see other rain measurements)
** Current wind speed in m/s (hover to see current wind gust speed)